Weather reports worldwide

Advertisment
Berlin/Alexanderplatz, Germany (10389): temperature & dewpoint: 12.02.2020 10:00:00 - 18.02.2020 10:00:00 (CET)Berlin/Alexanderplatz, Germany (10389): temperature -5cm: 12.02.2020 10:00:00 - 18.02.2020 10:00:00 (CET)Berlin/Alexanderplatz, Germany (10389): temperature -20cm & temperature -100cm: 12.02.2020 10:00:00 - 18.02.2020 10:00:00 (CET)Berlin/Alexanderplatz, Germany (10389): sunshine duration: 12.02.2020 10:00:00 - 18.02.2020 10:00:00 (CET)Berlin/Alexanderplatz, Germany (10389): precipitation: 12.02.2020 10:00:00 - 18.02.2020 10:00:00 (CET)
Date & Time tt [°C] td [°C] tt -5cm [°C] tt -20cm [°C] tt -100cm [°C] sd [min] rr [mm]
18.02.2020 10:00:00 - - - - - - -
18.02.2020 09:00:00 - - - - - - -
18.02.2020 08:00:00 - - - - - - -
18.02.2020 07:00:00 - - - - - - -
18.02.2020 06:00:00 - - - - - - -
18.02.2020 05:00:00 - - - - - - -
18.02.2020 04:00:00 - - - - - - -
18.02.2020 03:00:00 - - - - - - -
18.02.2020 02:00:00 - - - - - - -
18.02.2020 01:00:00 - - - - - - -
18.02.2020 00:00:00 - - - - - - -
17.02.2020 23:00:00 - - - - - - -
17.02.2020 22:00:00 - - - - - - -
17.02.2020 21:00:00 - - - - - - -
17.02.2020 20:00:00 - - - - - - -
17.02.2020 19:00:00 - - - - - - -
17.02.2020 18:00:00 - - - - - - -
17.02.2020 17:00:00 - - - - - - -
17.02.2020 16:00:00 - - - - - - -
17.02.2020 15:00:00 - - - - - - -
17.02.2020 14:00:00 - - - - - - -
17.02.2020 13:00:00 - - - - - - -
17.02.2020 12:00:00 - - - - - - -
17.02.2020 11:00:00 - - - - - - -
17.02.2020 10:00:00 - - - - - - -
17.02.2020 09:00:00 - - - - - - -
17.02.2020 08:00:00 - - - - - - -
17.02.2020 07:00:00 - - - - - - -
17.02.2020 06:00:00 - - - - - - -
17.02.2020 05:00:00 - - - - - - -
17.02.2020 04:00:00 - - - - - - -
17.02.2020 03:00:00 - - - - - - -
17.02.2020 02:00:00 - - - - - - -
17.02.2020 01:00:00 - - - - - - -
17.02.2020 00:00:00 - - - - - - -
16.02.2020 23:00:00 - - - - - - -
16.02.2020 22:00:00 - - - - - - -
16.02.2020 21:00:00 - - - - - - -
16.02.2020 20:00:00 - - - - - - -
16.02.2020 19:00:00 - - - - - - -
16.02.2020 18:00:00 - - - - - - -
16.02.2020 17:00:00 - - - - - - -
16.02.2020 16:00:00 - - - - - - -
16.02.2020 15:00:00 - - - - - - -
16.02.2020 14:00:00 - - - - - - -
16.02.2020 13:00:00 - - - - - - -
16.02.2020 12:00:00 - - - - - - -
16.02.2020 11:00:00 - - - - - - -
16.02.2020 10:00:00 - - - - - - -
16.02.2020 09:00:00 - - - - - - -
16.02.2020 08:00:00 - - - - - - -
16.02.2020 07:00:00 - - - - - - -
16.02.2020 06:00:00 - - - - - - -
16.02.2020 05:00:00 - - - - - - -
16.02.2020 04:00:00 - - - - - - -
16.02.2020 03:00:00 - - - - - - -
16.02.2020 02:00:00 - - - - - - -
16.02.2020 01:00:00 7,7 2,0 3,6 4,7 6,2 0 0,0
16.02.2020 00:00:00 7,9 2,4 3,4 4,9 6,2 0 0,0
15.02.2020 23:00:00 7,5 2,6 3,1 5,0 6,2 0 0,0
15.02.2020 22:00:00 7,5 2,6 3,4 5,2 6,2 0 0,0
15.02.2020 21:00:00 6,9 2,6 3,5 5,4 6,2 0 0,0
15.02.2020 20:00:00 7,5 3,0 4,2 5,7 6,2 0 0,0
15.02.2020 19:00:00 8,3 3,5 4,9 5,7 6,2 0 0,0
15.02.2020 18:00:00 9,1 3,5 6,1 5,7 6,2 0 0,0
15.02.2020 17:00:00 9,8 3,7 7,6 5,7 6,2 25 0,0
15.02.2020 16:00:00 10,6 3,2 9,2 5,2 6,2 54 0,0
15.02.2020 15:00:00 11,0 3,8 11,3 4,7 6,2 60 0,0
15.02.2020 14:00:00 10,6 3,4 11,1 4,0 6,2 60 0,0
15.02.2020 13:00:00 8,5 3,1 8,6 3,7 6,2 60 0,0
15.02.2020 12:00:00 7,9 2,6 6,9 3,2 6,2 53 0,0
15.02.2020 11:00:00 6,3 2,0 4,5 3,0 6,2 20 0,0
15.02.2020 10:00:00 4,0 0,7 2,2 3,0 6,2 5 0,0
15.02.2020 09:00:00 2,8 0,9 0,8 3,2 6,2 0 0,0
15.02.2020 08:00:00 2,3 0,7 0,1 3,2 6,2 0 0,0
15.02.2020 07:00:00 2,2 1,0 0,4 3,4 6,2 0 0,0
15.02.2020 06:00:00 2,2 1,5 0,8 3,6 6,3 0 0,0
15.02.2020 05:00:00 2,6 2,0 1,5 3,7 6,2 0 0,0
15.02.2020 04:00:00 2,5 2,2 1,5 3,7 6,2 0 0,0
15.02.2020 03:00:00 2,9 2,2 1,1 3,9 6,2 0 0,0
15.02.2020 02:00:00 3,8 2,8 1,3 4,1 6,3 0 0,0
15.02.2020 01:00:00 4,0 2,8 1,6 4,2 6,3 0 0,0
15.02.2020 00:00:00 4,5 3,0 2,3 4,3 6,3 0 0,0
14.02.2020 23:00:00 4,6 3,3 2,2 4,5 6,3 0 0,0
14.02.2020 22:00:00 5,1 3,3 3,0 4,6 6,3 0 0,0
14.02.2020 21:00:00 4,9 2,8 3,2 4,7 6,3 0 0,0
14.02.2020 20:00:00 5,4 2,9 4,3 4,8 6,3 0 0,0
14.02.2020 19:00:00 5,7 3,2 4,8 4,7 6,3 0 0,0
14.02.2020 18:00:00 6,2 3,2 5,1 4,7 6,3 0 0,0
14.02.2020 17:00:00 6,3 3,1 5,5 4,6 6,3 0 0,0
14.02.2020 16:00:00 6,1 3,1 5,9 4,5 6,3 0 0,0
14.02.2020 15:00:00 5,9 3,6 5,7 4,3 6,3 0 0,0
14.02.2020 14:00:00 5,7 3,2 5,9 4,2 6,3 0 0,0
14.02.2020 13:00:00 5,2 3,1 5,8 4,0 6,3 0 0,1
14.02.2020 12:00:00 5,0 2,5 5,5 3,8 6,3 0 0,0
14.02.2020 11:00:00 4,9 2,6 4,7 3,6 6,3 0 0,0
14.02.2020 10:00:00 4,5 2,0 3,7 3,5 6,3 0 0,0
14.02.2020 09:00:00 4,5 2,2 2,9 3,5 6,3 0 0,0
14.02.2020 08:00:00 4,3 2,2 2,5 3,5 6,3 0 0,0
14.02.2020 07:00:00 4,1 2,0 2,3 3,5 6,4 0 0,0
14.02.2020 06:00:00 3,8 1,7 2,2 3,6 6,4 0 0,0
14.02.2020 05:00:00 3,7 1,9 1,9 3,7 6,4 0 0,0
14.02.2020 04:00:00 4,0 1,9 2,1 3,7 6,4 0 0,0
14.02.2020 03:00:00 4,2 2,1 2,3 3,8 6,4 0 0,0
14.02.2020 02:00:00 4,4 2,3 2,9 3,8 6,4 0 0,0
14.02.2020 01:00:00 4,3 2,0 3,1 3,8 6,4 0 0,0
14.02.2020 00:00:00 4,0 2,0 3,1 3,8 6,4 0 0,0
13.02.2020 23:00:00 3,9 1,8 3,1 3,8 6,4 0 0,1
13.02.2020 22:00:00 4,0 1,4 3,1 3,8 6,4 0 0,4
13.02.2020 21:00:00 4,2 1,1 3,1 3,8 6,4 0 0,1
13.02.2020 20:00:00 4,4 1,1 3,1 3,8 6,4 0 0,0
13.02.2020 19:00:00 4,1 1,1 3,2 3,8 6,5 0 0,4
13.02.2020 18:00:00 5,0 -0,2 3,4 3,8 6,5 0 0,0
13.02.2020 17:00:00 5,8 -1,1 3,9 3,7 6,5 0 0,0
13.02.2020 16:00:00 5,9 -0,8 4,4 3,6 6,5 0 0,0
13.02.2020 15:00:00 6,0 -0,7 4,8 3,3 6,5 0 0,0
13.02.2020 14:00:00 5,9 -0,8 5,3 3,0 6,5 0 0,0
13.02.2020 13:00:00 5,5 -0,8 5,0 2,7 6,5 0 0,0
13.02.2020 12:00:00 5,1 -0,7 3,3 2,6 6,5 36 0,0
13.02.2020 11:00:00 4,4 -1,2 0,5 2,6 6,5 33 0,0
13.02.2020 10:00:00 3,5 -1,5 0,4 2,6 6,5 31 0,0
13.02.2020 09:00:00 2,4 -1,9 0,4 2,6 6,5 29 0,0
13.02.2020 08:00:00 2,1 -2,0 0,2 2,7 6,5 0 0,0
13.02.2020 07:00:00 2,5 -2,0 0,0 2,8 6,5 0 0,0
13.02.2020 06:00:00 3,0 -1,6 -0,3 2,9 6,5 0 0,0
13.02.2020 05:00:00 3,5 -1,7 -0,1 3,0 6,6 0 0,0
13.02.2020 04:00:00 3,5 -1,7 0,2 3,2 6,6 0 0,0
13.02.2020 03:00:00 3,6 -2,0 0,3 3,3 6,6 0 0,0
13.02.2020 02:00:00 3,7 -2,1 0,4 3,4 6,6 0 0,0
13.02.2020 01:00:00 3,9 -2,1 0,5 3,6 6,6 0 0,0
13.02.2020 00:00:00 4,0 -1,8 0,7 3,7 6,6 0 0,0
12.02.2020 23:00:00 4,1 -1,7 0,9 3,9 6,6 0 0,0
12.02.2020 22:00:00 4,5 -2,2 1,3 4,0 6,6 0 0,0
12.02.2020 21:00:00 4,9 -2,0 1,6 4,2 6,6 0 0,0
12.02.2020 20:00:00 5,0 -1,9 2,1 4,3 6,6 0 0,0
12.02.2020 19:00:00 5,6 -2,3 2,7 4,4 6,6 0 0,0
12.02.2020 18:00:00 5,9 -2,2 3,1 4,4 6,6 0 0,0
12.02.2020 17:00:00 6,4 -3,3 4,0 4,4 6,6 0 0,0
12.02.2020 16:00:00 6,7 -3,3 4,7 4,3 6,7 4 0,0
12.02.2020 15:00:00 6,8 -3,2 4,7 4,2 6,7 3 0,0
12.02.2020 14:00:00 6,4 -3,0 4,7 4,0 6,7 4 0,0
12.02.2020 13:00:00 6,5 -2,9 5,2 3,8 6,7 17 0,0
12.02.2020 12:00:00 5,6 -2,5 3,9 3,7 6,7 2 0,0
12.02.2020 11:00:00 5,2 -2,4 3,1 3,6 6,7 0 0,0
12.02.2020 10:00:00 4,8 -2,5 2,5 3,6 6,7 0 0,0

tt = temperature
td = dewpoint
tt -5cm = temperature -5cm
tt -20cm = temperature -20cm
tt -100cm = temperature -100cm
sd = sunshine duration
rr = precipitation

Next stations